Regional Weather Roundup
Issued by NWS

Home | Current Version | Previous Version | Graphics & Text | Print | Product List | Glossary On
Versions: 1 2 3 4 5 6 7 8 9 10 11 12 13 14 15 16 17 18 19 20 21 22 23 24 25 26 27 28 29 30 31 32 33 34 35 36 37 38 39 40 41 42 43 44 45 46 47 48 49 50
000
ASUS43 KIND 100959
RWRIN

WEATHER ROUNDUP FOR INDIANA
NATIONAL WEATHER SERVICE INDIANAPOLIS IN
500 AM EST SAT DEC 10 2016

NOTE: "FAIR" INDICATES FEW OR NO CLOUDS BELOW 12,000 FEET WITH NO
SIGNIFICANT WEATHER AND/OR OBSTRUCTIONS TO VISIBILITY.

* - STATION DOES NOT REPORT WEATHER SUCH AS PRECIPITATION OR FOG.

+ - STATION NOT QUALITY CONTROLLED BY THE NATIONAL WEATHER SERVICE.
    USE DATA WITH CAUTION...ESPECIALLY DEWPOINT AND RELATIVE
    HUMIDITY OBSERVATIONS.

INZ001>003-010>013-019-020-101100-
NORTHWEST INDIANA

CITY           SKY/WX    TMP DP  RH WIND       PRES   REMARKS
MONTICELLO +   CLOUDY    23  10  59 W5        30.52R WCI  17

$$

LMZ046-743>745-101100-
SOUTHERN LAKE MICHIGAN

STATION/POSITION TIME  TEMP    WIND        PRES    WAVE
                       AIR SEA DIR/SP/G            HT
                 (UTC) (F)     (DEG/KT/KT) (MB)    (FT)

$$

INZ004-005-014>016-021>024-101100-
NORTH CENTRAL INDIANA

CITY           SKY/WX    TMP DP  RH WIND       PRES   REMARKS
GOSHEN         CLOUDY    20  12  71 W13       30.48R WCI   7
SOUTH BEND     MOCLDY    18  12  77 SW9       30.48S WCI   7

$$

INZ006>009-017-018-025>027-101100-
NORTHEAST INDIANA

CITY           SKY/WX    TMP DP  RH WIND       PRES   REMARKS
ANGOLA *+      CLOUDY    19  16  86 W6        30.44S WCI  11
FORT WAYNE     MOCLDY    19  12  74 W9        30.49F WCI   8
KENDALLVILLE + FLURRIES  19  14  81 W9G16     30.46S WCI   9

$$

INZ028-029-035-036-043>045-051>053-101100-
WEST CENTRAL INDIANA

CITY           SKY/WX    TMP DP  RH WIND       PRES   REMARKS
CRAWFORDSVL +  CLOUDY    19  16  86 W3        30.53S
GREENCASTLE +  CLOUDY    21  18  86 CALM      30.54S
LAFAYETTE      CLOUDY    22  17  81 W7        30.54R WCI  13
TERRE HAUTE    CLOUDY    23  15  71 CALM      30.56S

$$

INZ030>032-037>040-046>048-054>057-064-065-101100-
CENTRAL INDIANA

CITY           SKY/WX    TMP DP  RH WIND       PRES   REMARKS
FRANKFORT +    CLOUDY    25  19  79 W8        30.53S WCI  16
GREENWOOD *+   CLOUDY    23  18  81 W5        30.53S WCI  17
INDIANAPOLIS   CLOUDY    22  15  75 W6        30.52S WCI  14
-EAGLE CREEK   CLOUDY    22  15  75 W5        30.52S WCI  16
SHELBYVILLE    CLOUDY    24  16  71 W6        30.52S WCI  17

$$

INZ033-034-041-042-049-050-058-059-101100-
EAST CENTRAL INDIANA

CITY           SKY/WX    TMP DP  RH WIND       PRES   REMARKS
MUNCIE         CLOUDY    23  15  71 W6        30.50F WCI  16

$$

INZ060-061-067>069-081>083-085>088-101100-
SOUTHWEST INDIANA

CITY           SKY/WX    TMP DP  RH WIND       PRES   REMARKS
EVANSVILLE     CLOUDY    20  16  84 CALM      30.60S
HUNTINGBURG *+ CLOUDY    18  15  88 CALM      30.58S

$$

INZ062-063-066-070>080-084-089>092-101100-
SOUTH CENTRAL AND SOUTHEAST INDIANA

CITY           SKY/WX    TMP DP  RH WIND       PRES   REMARKS
BLOOMINGTON    CLOUDY    23  17  78 SW6       30.54S WCI  16
MADISON *+     PTCLDY    19  16  86 CALM      30.57S
SEYMOUR +      CLOUDY    23  19  86 CALM      30.56F

$$




USA.gov is the U.S. government's official web portal to all federal, state and local government web resources and services.